Погода в Витиме

Россия / Республика Саха (Якутия)     59°25′46″N   112°33′28″E
темп.,
°C
ветер,
м/с
пор.,
м/с
влажн.,
%
обл.,
%
осадки,
мм/ч
давл.,
гПа
погр.,
м
1 марта, пн
пн100:00−26ююз2298100 0.1 103552
03:00−26юз2598100 0.1 1035167
06:00−28юз2299100 0.0 103425
09:00−28ююз1299100 0.1 103325
12:00−23юз3590100 0.1 1031639
15:00−21юз2481100 0.1 10281157
18:00−22зюз1290100 0.1 1027162
21:00−25в1197100 0.1 102619
2 марта, вт
вт200:00−25всв1199100 0.1 102419
03:00−26св1199100 0.1 102320
06:00−27св2299100 0.0 102132
09:00−26св2399100 0.1 1020110
12:00−24св2394100 0.1 1019257
15:00−22св3492100 0.1 1017452
18:00−22ссв3592100 0.1 1017524
21:00−25ссв3796100 0.1 1019318
3 марта, ср
ср300:00−28с2498100 0.0 102076
03:00−29ссз2298100 0.1 102145
06:00−30сз1198100 0.1 102234
09:00−31сз1198100 0.1 102435
12:00−28ссз1289100 0.1 1024447
15:00−25ссз2283100 0.1 1025761
18:00−26ссз2390100 0.1 1027517
21:00−30ссз1199100 0.1 103019
4 марта, чт
чт400:00−32ссз1199100 0.0 103219
03:00−35зсз11100100 0.1 103419
06:00−36з11100100 0.0 103619
09:00−36зюз1198100 0.0 103919
12:00−30юз238776 0.0 1038412
15:00−26юз248588 0.0 1038692
18:00−26юз2588100 0.0 1039612
21:00−31ююз239467 0.0 104223
5 марта, пт
пт500:00−32ююз23960 0.0 104235
03:00−33ююз23960 0.0 104340
06:00−34ююз23940 0.0 104428
09:00−34ю23920 0.0 104453
12:00−26ююз36840 0.0 1040333
15:00−21ю368014 0.0 1037508
18:00−20ю268279 0.0 1035388
21:00−26юв118651 0.0 103419